Details From CYXC - Canadian Rockies Intl
To CYLW - Kelowna
Flight Number -
Tags Standard
Created
Modified
Stats Distance 144 nm / 266 km
Max Altitude 28,000 ft / 8,534 m
Waypoints 5
Social Downloads 1
Likes 0
Share VATSIM

Download

Looking for another format? Having issues loading an existing format? Contact us
Advertisement - Login to hide

Notes

None

Route

CYXC YXC KANEE KETTL CYLW

ID Type Via Altitude Latitude Longitude Leg Dist Tot Dist Heading (true) Name
O CYXC APT - 0 ft / 0 m 49.61222˚ -115.78194˚ - 0 nm - CANADIAN ROCKIES INTL
YXC VOR - 28,000 ft / 8,534 m 49.55427˚ -116.08830˚ 12 nm 12 nm 254° / 254° CRANBROOK VOR-DME
KANEE FIX - 28,000 ft / 8,534 m 49.81556˚ -117.44250˚ 54 nm 67 nm 287° / 286° -
KETTL FIX - 14,000 ft / 4,267 m 49.98157˚ -118.31782˚ 35 nm 102 nm 287° / 286° -
O CYLW APT - 0 ft / 0 m 49.95722˚ -119.37778˚ 40 nm 143 nm 268° / 268° Kelowna

Altitude Profile

Advertisement - Login to hide

CYXC

Details ICAO CYXC (YXC)
Name CANADIAN ROCKIES INTL
Region Canada
Timezone America/Edmonton (UTC-6.0)
Stats Elevation 3,084 ft / 940 m (AMSL)
Location 49.612121° -115.782055°
Runways 1
Magnetic Variation 14.393° E

METAR

CYXC 202300Z 25007KT 230V310 25SM BKN095 BKN130 BKN240 22/02 A2986 RMK CU6AC1CI1 AC TR CI TR SLP109 DENSITY ALT 4700FT

Decode

TAF

TAF CYXC 201838Z 2019/2107 11007KT P6SM SCT060 BECMG 2020/2022 23008KT BECMG 2100/2102 29007KT RMK NXT FCST BY 210100Z

Decode

Departure Runways

ID Width Length Bearing (true) Bearing (mag) Surface Threshold Offset Overrun Length
16 150 ft / 46 m 8,000 ft / 2,438 m 179.16° 164.77° Asphalt 780 ft / 238 m 0 ft / 0 m
34 150 ft / 46 m 8,000 ft / 2,438 m 359.16° 344.77° Asphalt 0 ft / 0 m 0 ft / 0 m

CYLW

Details ICAO CYLW (YLW)
Name Kelowna
Region Canada
Timezone America/Vancouver (UTC-7.0)
Stats Elevation 1,409 ft / 429 m (AMSL)
Location 49.956117° -119.377757°
Runways 1
Magnetic Variation 15.567° E

METAR

CYLW 210000Z AUTO 35022KT 9SM CLR 23/09 A2986 RMK SLP114 DENSITY ALT 2700FT

Decode

TAF

TAF AMD TAF AMD CYLW 202346Z 2023/2107 35015G25KT P6SM SCT080 BECMG 2100/2101 VRB03KT RMK FCST BASED ON AUTO OBS. NXT FCST BY 210100Z

Decode

Destination Runways

ID Width Length Bearing (true) Bearing (mag) Surface Threshold Offset Overrun Length
16 200 ft / 61 m 7,299 ft / 2,225 m 174.89° 159.32° Asphalt 0 ft / 0 m 0 ft / 0 m
34 200 ft / 61 m 7,299 ft / 2,225 m 354.89° 339.32° Asphalt 0 ft / 0 m 0 ft / 0 m

Approach Navaids

Runway Type Ident Frequency Range Bearing (true) Bearing (mag) Slope Elevation
16 Localiser ILW 111.30 MHz 18 nm / 33 km 174.87° 159.30° - 1,049 ft / 320 m (AMSL)
16 Glidescope ILW 111.30 MHz 10 nm / 19 km 174.89° 159.32° 3.20° 1,409 ft / 429 m (AMSL)
16 DME ILW 111.30 MHz 18 nm / 33 km - - - 1,409 ft / 429 m (AMSL)

Popular Alternatives